Location: Asheville, NC
(35.6000°N, 82.5500°W)
Time: 11:45:25
(UTC-05:00)

Vanguard 2 - Pass Details

Date: 13 December 2017
Orbit: 553 x 2939 km, 32.9° (Epoch: 20 February)

Event Time Altitude Azimuth Distance (km) Brightness Sun altitude
Rises 18:11:42 0° 267° (W) 3,641 12.6 -10.8°
Reaches altitude 10° 18:14:45 10° 264° (W) 2,402 11.5 -11.4°
Maximum altitude 18:19:57 63° 184° (S) 706 7.4 -12.3°
Enters shadow 18:23:16 15° 105° (ESE) 1,579 8.7 -13.0°
Drops below altitude 10° 18:23:55 10° 103° (ESE) 1,842 - -13.1°
Sets 18:26:00 0° 100° (E) 2,710 - -13.5°
